Location: Nosières
(45.0077°N, 2.4280°E)
Time: 00:19:40
(UTC+00:00)

Daily predictions for brighter satellites

Satellite Brightness Start Highest point End
(mag) Time Altitude Azimuth Time Altitude Azimuth Time Altitude Azimuth
ATLAS 2AS CENTAUR R/B 4.1 01:22:05 34° NE 01:22:05 34° NE 01:25:51 10° NE
SL-16 R/B 4.3 02:10:00 22° NNW 02:10:00 22° NNW 02:12:00 10° NNW
USA 281 3.9 02:02:24 10° NNE 02:07:16 49° NE 02:07:16 49° NE
ADEOS II 4.1 02:04:46 10° NNE 02:06:36 22° NNE 02:06:36 22° NNE
CZ-2D R/B 4.2 02:09:54 10° N 02:11:32 20° N 02:11:32 20° N
Lacrosse 5 rocket 4.3 02:31:30 14° NE 02:31:30 14° NE 02:32:06 10° NE
ATLAS CENTAUR R/B 3.9 02:34:10 50° NNW 02:34:30 50° NNW 02:45:47 10° NE
COSMOS 2428 3.4 02:43:33 10° NNW 02:49:07 51° ENE 02:54:39 10° SE
CZ-2C R/B 3.4 02:52:25 10° NNE 02:56:50 39° E 02:56:50 39° E
ALOS 3.7 02:53:53 10° NNE 02:56:20 31° NNE 02:56:20 31° NNE
USA 215 3.7 02:53:36 10° ESE 02:59:59 58° NNE 03:03:31 28° NW
ATLAS 2AS CENTAUR R/B 3.8 03:09:31 31° NW 03:10:14 32° NNW 03:16:34 10° NNE
Cosmos 1655 Rocket 4.2 03:13:15 58° NW 03:13:15 58° NW 03:18:55 10° N
Cosmos 2150 Rocket 4.2 03:16:29 61° SE 03:17:05 66° ESE 03:22:19 10° NNE
CZ-2C R/B 3.1 03:14:19 10° N 03:19:53 74° WNW 03:19:53 74° WNW
Thor Agena Rocket 4.1 03:17:23 10° N 03:21:26 46° NNW 03:21:26 46° NNW
Resurs 1-4 Rocket 4.3 03:23:53 10° NNW 03:24:40 12° NNW 03:24:40 12° NNW
Cosmos 1743 Rocket 3.8 03:23:47 10° N 03:27:40 66° NNE 03:27:40 66° NNE
Meteor 1-11 Rocket 4.2 03:23:23 10° N 03:29:17 66° ENE 03:35:12 10° SSE
Meteor 1-14 Rocket 4.2 03:24:01 10° NNW 03:29:56 63° W 03:30:01 63° W
Cosmos 1805 Rocket 3.6 03:26:10 10° N 03:30:32 73° E 03:30:45 71° ESE
USA 229 DEB 4.0 03:24:56 10° NW 03:32:25 84° NE 03:40:29 10° SE
USA 229 4.0 03:25:02 10° NW 03:32:31 84° NE 03:40:34 10° SE
Cosmos 1867 3.4 03:33:23 69° SW 03:33:23 69° SW 03:38:40 10° SSE
Meteor 2-6 Rocket 4.1 03:38:04 58° WNW 03:38:04 58° WNW 03:43:20 10° N
ATLAS CENTAUR R/B 4.2 03:37:13 10° NNE 03:38:12 11° NNE 03:39:11 10° NE
Sich 1 3.0 03:35:00 10° N 03:39:21 83° E 03:41:11 35° SSE
GP-B 3.1 03:38:17 50° SSE 03:39:24 81° E 03:43:52 10° N
Cosmos 1484 Rocket 4.2 03:38:35 10° NNE 03:41:54 33° E 03:44:38 14° SSE
Cosmos 1244 Rocket 4.4 03:39:43 29° SSW 03:43:07 80° W 03:49:29 10° N
YAOGAN 6 3.4 03:43:14 10° NNE 03:45:35 41° N 03:45:35 41° N
Meteor 1-10 Rocket 4.0 03:44:45 36° SSW 03:47:08 80° WNW 03:52:42 10° N
BlueWalker 3 2.7 03:48:24 42° SSE 03:48:24 42° SSE 03:51:08 10° SE
NOSS 3-1 (A) 4.3 03:43:24 20° NW 03:48:35 48° WSW 03:57:03 10° S
ADEOS II 4.0 03:45:54 10° NNW 03:47:29 14° NW 03:47:29 14° NW
USA 281 4.1 03:47:30 10° N 03:53:01 30° NW 03:54:08 28° WNW
IRS-1D 3.7 03:48:05 10° N 03:53:13 52° WNW 03:54:06 47° WSW
Envisat 2.9 03:50:27 10° N 03:55:32 72° WNW 03:57:47 33° SSW
TIMED 4.4 03:58:24 57° WSW 03:59:03 66° WNW 04:03:23 10° NNE
Cosmos 2297 Rocket 2.5 03:55:04 15° S 03:59:45 67° ESE 04:05:22 10° NNE
Cosmos 1125 Rocket 4.2 04:06:13 33° WNW 04:06:45 33° WNW 04:11:28 10° N
Lacrosse 5 rocket 2.9 04:06:40 21° NW 04:07:13 21° NNW 04:10:17 10° NNE
Cosmos 1536 2.8 04:03:32 10° NNW 04:07:16 53° W 04:07:16 53° W
Cosmos 546 4.5 04:09:32 54° W 04:10:12 68° SSW 04:14:00 10° SE
Cosmos 2237 Rocket 2.2 04:04:41 10° NNW 04:10:25 84° ENE 04:16:05 10° SSE
Okean 1 3.1 04:16:06 20° SSW 04:18:38 70° W 04:22:29 10° N
SL-16 R/B 3.8 04:14:38 10° NNW 04:19:52 35° NE 04:25:03 10° ESE
Cosmos 1726 2.7 04:20:02 10° N 04:23:24 53° ENE 04:26:46 10° SSE
H-2A R/B 2.9 04:20:42 10° NNE 04:24:11 65° E 04:27:37 10° S
ERS-2 3.6 04:22:42 10° NE 04:25:34 31° E 04:28:25 10° SSE
Cosmos 1975 4.1 04:22:06 10° N 04:25:53 43° ENE 04:29:41 10° SSE
COBE Rocket 4.1 04:23:18 10° N 04:27:57 47° WNW 04:32:18 12° SW
Cosmos 2344 4.0 04:21:51 10° SSW 04:29:25 61° ESE 04:36:39 10° NE
IRS-1C 4.3 04:26:16 10° NNE 04:31:38 78° ESE 04:36:57 10° S
Nadezhda 1 Rocket 4.0 04:26:18 10° NNW 04:32:29 62° W 04:38:32 10° S
COSMOS 2428 3.6 04:28:23 10° NW 04:33:02 26° WSW 04:37:40 10° SSW
ATLAS 5 CENTAUR R/B 4.4 04:32:09 10° N 04:33:38 11° NNE 04:35:12 10° NE
CBERS-1 4.3 04:28:46 10° N 04:33:40 48° WNW 04:38:34 10° SW
NOSS 0 Rocket 4.2 04:28:13 10° NW 04:34:04 43° WSW 04:39:54 10° S
Cosmos 1151 Rocket 3.5 04:31:38 18° SW 04:34:31 39° WNW 04:38:39 10° N
CZ-2C R/B 3.4 04:30:59 10° N 04:34:48 25° WNW 04:36:09 22° W
ALOS 4.3 04:33:25 10° NW 04:34:43 12° NW 04:34:43 12° NW
Cosmos 1515 Rocket 4.3 04:38:22 10° S 04:42:40 57° E 04:46:58 10° NNE
USA 215 3.4 04:36:42 10° SSE 04:43:04 52° SW 04:49:27 10° WNW
Cosmos 1733 3.2 04:39:23 10° N 04:43:06 79° E 04:46:46 10° SSE
BREEZE-M DEB (TANK) 3.9 04:42:21 19° W 04:45:24 72° N 05:03:04 10° ENE
Cosmos 1328 Rocket 3.5 04:41:13 10° SSW 04:45:35 63° W 04:49:58 10° N
Cosmos 1666 Rocket 3.7 04:41:35 10° NNW 04:45:48 48° W 04:49:57 10° SSW
Cosmos 2227 Rocket 2.2 04:40:52 10° SSW 04:46:33 88° ESE 04:52:15 10° NNE
Meteor 2-20 Rocket 4.4 04:40:42 10° NNW 04:46:51 63° W 04:52:45 10° S
ARIANE 5 R/B 2.4 04:41:57 10° NNE 04:47:00 85° WNW 04:51:59 10° SSW
COSMO-SKYMED 1 3.2 04:43:08 10° SSE 04:47:24 60° ENE 04:51:42 10° N
Cosmos 44 Rocket 3.7 04:43:55 16° WSW 04:47:48 49° NW 04:52:50 10° NNE
Cosmos 2263 Rocket 4.2 04:44:50 10° SSE 04:49:42 31° ESE 04:54:34 10° NE
Cosmos 1933 Rocket 4.5 04:47:34 10° N 04:51:49 52° ENE 04:56:02 10° SSE
Meteor 1-27 Rocket 4.3 04:48:41 10° SW 04:53:50 37° WNW 04:59:08 10° N
CZ-2D R/B 3.6 04:52:58 10° NNE 04:57:20 90° NNW 05:01:42 10° SSW
Helios 1A 3.4 04:55:21 10° SSW 04:59:09 37° W 05:02:58 10° NNW
Cosmos 1269 Rocket 4.4 05:00:18 10° NW 05:05:13 41° WSW 05:10:08 10° S
IRS-P3 4.1 05:00:28 10° N 05:05:46 67° WNW 05:11:03 10° SSW
Cosmos 1709 Rocket 4.1 05:00:11 10° SSW 05:06:26 58° WNW 05:12:43 10° N
Cosmos 1238 4.2 05:05:25 10° NNW 05:08:24 55° W 05:11:25 10° S
Cosmos 1805 3.1 05:06:07 10° NNW 05:09:54 73° W 05:13:39 10° S
Cosmos 2082 4.5 05:06:09 10° S 05:11:40 57° ESE 05:17:11 10° NNE
Meteor 2-4 Rocket 3.8 05:07:35 10° SSW 05:13:28 66° WNW 05:19:15 10° N
Cosmos 1140 Rocket 3.8 05:08:39 10° NNW 05:13:55 76° ENE 05:19:08 10° SSE
Cosmos 1633 Rocket 3.8 05:10:28 10° NNW 05:14:18 30° W 05:18:07 10° SSW
Cosmos 1484 Rocket 4.2 05:13:13 10° NNW 05:15:43 18° WNW 05:18:11 10° WSW
Spot 4 Rocket 4.3 05:11:13 10° NNE 05:16:23 76° ESE 05:21:29 10° S
ATLAS CENTAUR R/B 1.2 05:13:23 10° NNW 05:16:58 72° NE 05:20:33 10° SE
H-2A R/B 2.2 05:17:42 10° N 05:23:05 62° WNW 05:28:22 10° SSW
Meteor 1-18 Rocket 4.4 05:18:58 10° SSW 05:24:43 57° WNW 05:30:25 10° N
Cosmos 1066 Rocket 4.4 05:21:14 10° S 05:27:05 87° ESE 05:32:55 10° NNE
